DW4028 Weather Reports


time (UTC)temp
C
wind
direction
speed
KPH
gust
KPH
rain 1hr
cm
rain 24hr
cm
rain mn
cm
humidity
%
barometer
mb
20260507030029 13 167 3.2 16.1 0.00 0.15 0.15 92 1006.9
20260507024524 13 188 3.2 12.9 0.00 0.15 0.15 92 1006.9
20260507023026 13 183 4.8 12.9 0.00 0.15 0.15 92 1007.1
20260507021512 13 196 6.4 14.5 0.00 0.15 0.15 92 1006.7
20260507020020 13 170 4.8 12.9 0.00 0.15 0.15 92 1007.0
20260507014515 13 171 1.6 17.7 0.00 0.15 0.15 92 1007.0
20260507013015 13 190 4.8 11.3 0.00 0.15 0.15 92 1007.2
20260507011513 13 179 6.4 16.1 0.00 0.15 0.15 92 1007.3
20260507010020 13 160 6.4 14.5 0.00 0.15 0.15 92 1007.5
20260507004518 13 175 4.8 16.1 0.00 0.15 0.15 92 1007.5
20260507003015 13 194 4.8 20.9 0.00 0.15 0.15 92 1007.4
20260507001518 13 169 4.8 16.1 0.00 0.15 0.15 92 1007.4
20260507000004 12 181 3.2 12.9 0.00 0.15 0.15 91 1007.5
20260506234511 12 169 6.4 16.1 0.00 0.15 0.15 91 1007.4
20260506233023 12 130 6.4 20.9 0.00 0.15 0.15 91 1007.3
20260506231504 12 136 9.7 19.3 0.03 0.15 0.15 91 1007.4
20260506230022 12 127 3.2 24.1 0.03 0.15 0.15 91 1007.5
20260506224521 12 160 8.0 22.5 0.03 0.15 0.15 90 1007.3
20260506223004 13 128 4.8 22.5 0.08 0.15 0.15 90 1007.3
20260506221519 13 201 4.8 20.9 0.05 0.13 0.13 90 1007.4
20260506220006 13 175 4.8 22.5 0.05 0.13 0.13 90 1007.9
20260506214504 13 193 6.4 19.3 0.05 0.13 0.13 89 1007.7
20260506213007 13 165 6.4 25.7 0.00 0.08 0.08 88 1007.8
20260506211503 13 163 8.0 30.6 0.03 0.08 0.08 88 1007.8
20260506210007 13 161 8.0 22.5 0.03 0.08 0.08 88 1008.0
20260506204506 14 208 3.2 17.7 0.03 0.08 0.08 88 1008.3
20260506203009 14 172 8.0 20.9 0.08 0.08 0.08 88 1008.4
20260506201525 14 144 6.4 27.4 0.05 0.05 0.05 88 1008.5
20260506200026 15 206 4.8 19.3 0.05 0.05 0.05 87 1008.6
20260506194512 15 233 6.4 30.6 0.05 0.05 0.05 86 1008.8
20260506193023 16 184 8.0 20.9 0.00 0.00 0.00 81 1008.8
20260506191508 17 209 6.4 22.5 0.00 0.00 0.00 76 1008.9
20260506190025 17 52 9.7 25.7 0.00 0.00 0.00 73 1008.8
20260506184520 17 46 6.4 19.3 0.00 0.00 0.00 73 1008.9
20260506183012 18 37 16.1 29.0 0.00 0.00 0.00 71 1008.9
20260506181519 18 53 1.6 29.0 0.00 0.00 0.00 70 1009.1
20260506180024 18 38 11.3 32.2 0.00 0.00 0.00 69 1009.2
20260506174523 18 32 11.3 30.6 0.00 0.00 0.00 68 1009.4
20260506173024 19 101 14.5 30.6 0.00 0.00 0.00 67 1009.7
20260506171515 19 203 9.7 29.0 0.00 0.00 0.00 68 1009.7
20260506170020 20 209 12.9 29.0 0.00 0.00 0.00 65 1009.6
20260506164525 19 197 14.5 33.8 0.00 0.00 0.00 67 1010.1
20260506163014 18 242 11.3 37.0 0.00 0.00 0.00 69 1010.1
20260506161521 19 171 8.0 25.7 0.00 0.00 0.00 68 1010.1
20260506160028 19 250 8.0 22.5 0.00 0.00 0.00 67 1010.4
20260506154521 19 206 6.4 20.9 0.00 0.00 0.00 69 1010.6
20260506153024 19 208 8.0 29.0 0.00 0.00 0.00 68 1010.8
20260506151530 19 211 12.9 22.5 0.00 0.00 0.00 67 1010.8
20260506150004 18 82 8.0 30.6 0.00 0.00 0.00 70 1011.0
20260506144508 18 91 11.3 25.7 0.00 0.00 0.00 71 1010.9
20260506143009 17 158 6.4 19.3 0.00 0.00 0.00 72 1011.0
20260506141504 18 146 8.0 33.8 0.00 0.00 0.00 71 1011.0
20260506140018 18 165 4.8 20.9 0.00 0.00 0.00 71 1010.7
20260506134514 18 259 12.9 30.6 0.00 0.00 0.00 71 1010.9
20260506133007 17 250 8.0 27.4 0.00 0.00 0.00 73 1011.4
20260506131517 17 219 11.3 19.3 0.00 0.00 0.00 75 1011.4
20260506130005 16 176 8.0 17.7 0.00 0.00 0.00 78 1011.5
20260506124508 16 102 6.4 22.5 0.00 0.00 0.00 78 1011.4
20260506123018 16 104 9.7 22.5 0.00 0.00 0.00 79 1011.4
20260506121506 15 59 8.0 17.7 0.00 0.00 0.00 81 1011.3
20260506120012 14 49 6.4 14.5 0.00 0.00 0.00 84 1011.6
20260506114533 14 90 8.0 20.9 0.00 0.00 0.00 84 1011.6
20260506113006 14 94 6.4 20.9 0.00 0.00 0.00 84 1011.7
20260506111518 13 83 9.7 22.5 0.00 0.00 0.00 86 1011.8
20260506110024 13 159 4.8 16.1 0.00 0.00 0.00 86 1011.8
20260506104510 13 136 4.8 17.7 0.00 0.00 0.00 86 1011.7
20260506103020 13 182 4.8 16.1 0.00 0.00 0.00 87 1011.7
20260506101511 13 184 4.8 22.5 0.00 0.00 0.00 87 1011.7
20260506100022 13 237 3.2 17.7 0.00 0.00 0.00 86 1011.5
20260506094524 13 238 4.8 19.3 0.00 0.00 0.00 86 1011.4
20260506093013 13 192 6.4 16.1 0.00 0.00 0.00 85 1011.6
20260506091507 13 177 6.4 16.1 0.00 0.00 0.00 85 1011.5
20260506090010 13 169 4.8 19.3 0.00 0.00 0.00 85 1011.6
20260506084510 13 169 4.8 25.7 0.00 0.00 0.00 84 1011.8
20260506083013 13 165 3.2 17.7 0.00 0.00 0.00 84 1011.9
20260506081512 13 165 9.7 24.1 0.00 0.00 0.00 84 1011.9
20260506073016 14 186 6.4 19.3 0.00 0.00 0.00 82 1011.8
20260506071515 14 124 9.7 22.5 0.00 0.00 0.00 81 1011.9
20260506061520 14 188 6.4 24.1 0.00 0.00 0.00 80 1011.7
20260506044504 13 129 9.7 25.7 0.00 0.00 0.00 79 1012.3
20260506043006 13 169 4.8 14.5 0.00 0.00 0.00 78 1012.3
20260506041506 14 172 8.0 17.7 0.00 0.00 0.00 77 1012.2
20260506040008 14 153 8.0 17.7 0.00 0.00 0.00 75 1012.2
20260506034504 14 121 11.3 27.4 0.00 0.00 0.00 75 1012.1
20260506033007 14 165 6.4 22.5 0.00 0.00 0.00 75 1012.1
20260506031515 13 159 6.4 19.3 0.00 0.00 0.00 75 1011.9